This is the latest recevied weather packets stored in our database for station/object G4KVI. If no packets are shown the sender has not sent any weather packets the latest 10 day(s).
| Time | Temp. | Humidity | Pressure | Rain* | Wind** | Luminosity | Snow |
|---|---|---|---|---|---|---|---|
| 1778088904 | 13.33° C | 46% | 1015.5 hPa | 0 mm | - | 80 W/m² | - |
| 1778088604 | 13.33° C | 47% | 1015.4 hPa | 0 mm | - | 97 W/m² | - |
| 1778088304 | 13.33° C | 46% | 1015.5 hPa | 0 mm | - | 89 W/m² | - |
| 1778088004 | 13.33° C | 46% | 1015.4 hPa | 0 mm | - | 105 W/m² | - |
| 1778087704 | 13.33° C | 46% | 1015.4 hPa | 0 mm | - | 111 W/m² | - |
| 1778087404 | 13.89° C | 46% | 1015.3 hPa | 0 mm | - | 118 W/m² | - |
| 1778087104 | 13.89° C | 45% | 1015.1 hPa | 0 mm | - | 139 W/m² | - |
| 1778086804 | 13.89° C | 46% | 1015.2 hPa | 0 mm | - | 141 W/m² | - |
| 1778086504 | 13.89° C | 45% | 1015.1 hPa | 0 mm | - | 116 W/m² | - |
| 1778086204 | 13.89° C | 45% | 1015.2 hPa | 0 mm | - | 104 W/m² | - |
| 1778085904 | 13.89° C | 46% | 1015.2 hPa | 0 mm | - | 105 W/m² | - |
| 1778085604 | 14.44° C | 44% | 1015.4 hPa | 0 mm | - | 142 W/m² | - |
| 1778085304 | 15° C | 43% | 1015.2 hPa | 0 mm | - | 195 W/m² | - |
| 1778085004 | 15° C | 41% | 1015.2 hPa | 0 mm | - | 210 W/m² | - |
| 1778084704 | 14.44° C | 43% | 1015.4 hPa | 0 mm | - | 368 W/m² | - |
| 1778084404 | 13.89° C | 45% | 1015.2 hPa | 0 mm | - | 312 W/m² | - |
| 1778084103 | 13.89° C | 44% | 1015.4 hPa | 0 mm | - | 160 W/m² | - |
| 1778083803 | 13.89° C | 44% | 1015.4 hPa | 0 mm | - | 179 W/m² | - |
| 1778083503 | 13.89° C | 45% | 1015.4 hPa | 0 mm | - | 193 W/m² | - |
| 1778083204 | 13.89° C | 46% | 1015.6 hPa | 0 mm | - | 165 W/m² | - |
| 1778082904 | 13.89° C | 45% | 1015.2 hPa | 0 mm | - | 147 W/m² | - |
| 1778082603 | 14.44° C | 45% | 1015.2 hPa | 0 mm | - | 137 W/m² | - |
| 1778082304 | 14.44° C | 44% | 1015.4 hPa | 0 mm | - | 192 W/m² | - |
| 1778082003 | 14.44° C | 45% | 1015.2 hPa | 0 mm | - | 531 W/m² | - |
| 1778081703 | 14.44° C | 44% | 1015.4 hPa | 0 mm | - | 533 W/m² | - |
* Rain latest hour (hover to see other rain measurements)
** Current wind speed in m/s (hover to see current wind gust speed)